FOX-1A (AO-85) (40967 NORAD) Tracking and Keplerian Element Data

This shows tracking and keplerian element data for the satellite.

Feedback or suggestion? Click here.




ElementValue
Catalog40967
NameFOX-1A (AO-85)
Epoch Orbit3930
Epoch Day34.39093604
Epoch Year2025
RAAN24.4417
Inclination64.7775
Eccentricity0.0178394
Argument of Perigee234.7922
Mean Anonmoly123.6375
Mean Motion14.86369023
Decay Rate7.845E-05
L11 40967U 15058D 25034.39093604 .00007845 00000+0 67737-3 0 9999
L22 40967 64.7775 24.4417 0178394 234.7922 123.6375 14.86369023 39301



Live tracking and technical data element details for FOX-1A (AO-85) (NORAD 40967). FOX-1A (AO-85) can be tracked NOW for your location showing map with azimuth and elevation plus other details from your city location.







IsCatalogInMostPopularTable: catalog: 40967, numindb: 960
Update: records affected: 1



GetName: 40967 FOX-1A (AO-85)

Hit Count: updated at: Thu, 10 Jul 2025 22:59:23 GMT